• în România
  • Lista ţărilor
  • Pe 7 zile
  • Temperatura apei
  • Hartă satelitară
  • Meteo pe hartă
  • Widget-uri
  • user-avatar
    Intrare

    Meteo pe oră la Zimnicea

    Astăzi, 21 Noiembrie, Marţi

    Timp Temperatura Precipitaţii Vânt Presiune Umiditate
    00:00 +3°C° 0 mm 4 m/s 758 mmHg 66%
    01:00 +3°C° 0 mm 4 m/s 758 mmHg 68%
    02:00 +3°C° 0 mm 4 m/s 759 mmHg 69%
    03:00 +1°C° 0 mm 4 m/s 759 mmHg 71%
    04:00 +1°C° 0 mm 4 m/s 759 mmHg 73%
    05:00 +1°C° 0 mm 4 m/s 760 mmHg 75%
    06:00 +1°C° 0 mm 4 m/s 760 mmHg 76%
    07:00 +1°C° 0 mm 4 m/s 760 mmHg 76%
    08:00 +1°C° 0 mm 4 m/s 760 mmHg 77%
    09:00 +3°C° 0 mm 4 m/s 760 mmHg 71%
    10:00 +3°C° 0 mm 5 m/s 760 mmHg 64%
    11:00 +6°C° 0 mm 5 m/s 760 mmHg 58%
    12:00 +7°C° 0 mm 5 m/s 760 mmHg 54%
    13:00 +7°C° 0 mm 5 m/s 759 mmHg 50%
    14:00 +8°C° 0 mm 5 m/s 759 mmHg 47%
    15:00 +8°C° 0 mm 4 m/s 759 mmHg 49%
    16:00 +8°C° 0 mm 3 m/s 759 mmHg 51%
    17:00 +7°C° 0 mm 2 m/s 759 mmHg 54%
    18:00 +7°C° 0 mm 2 m/s 759 mmHg 55%
    19:00 +7°C° 0 mm 3 m/s 759 mmHg 57%
    20:00 +5°C° 0 mm 3 m/s 759 mmHg 58%
    21:00 +5°C° 0 mm 3 m/s 759 mmHg 60%
    22:00 +5°C° 0 mm 3 m/s 759 mmHg 61%
    23:00 +5°C° 0 mm 3 m/s 759 mmHg 62%

    Mâine, 22 Noiembrie, Miercuri

    Timp Temperatura Precipitaţii Vânt Presiune Umiditate
    00:00 +6°C° 0 mm 2 m/s 759 mmHg 64%
    01:00 +6°C° 0 mm 2 m/s 759 mmHg 65%
    02:00 +6°C° 0 mm 2 m/s 759 mmHg 67%
    03:00 +6°C° 0 mm 2 m/s 759 mmHg 66%
    04:00 +6°C° 0 mm 2 m/s 759 mmHg 66%
    05:00 +6°C° 0 mm 2 m/s 759 mmHg 66%
    06:00 +6°C° 0 mm 2 m/s 759 mmHg 65%
    07:00 +6°C° 0 mm 2 m/s 759 mmHg 65%
    08:00 +7°C° 0 mm 3 m/s 759 mmHg 65%
    09:00 +8°C° 0 mm 3 m/s 759 mmHg 61%
    10:00 +8°C° 0 mm 4 m/s 759 mmHg 58%
    11:00 +10°C° 0 mm 5 m/s 759 mmHg 55%
    12:00 +12°C° 0 mm 5 m/s 759 mmHg 53%
    13:00 +13°C° 0 mm 6 m/s 759 mmHg 51%
    14:00 +13°C° 0 mm 6 m/s 758 mmHg 49%
    15:00 +13°C° 0 mm 5 m/s 758 mmHg 53%
    16:00 +12°C° 0 mm 4 m/s 758 mmHg 56%
    17:00 +11°C° 0 mm 3 m/s 758 mmHg 59%
    18:00 +11°C° 0 mm 3 m/s 759 mmHg 62%
    19:00 +10°C° 0 mm 3 m/s 759 mmHg 64%
    20:00 +10°C° 0 mm 3 m/s 759 mmHg 66%
    21:00 +9°C° 0 mm 3 m/s 759 mmHg 67%
    22:00 +9°C° 0 mm 3 m/s 759 mmHg 68%
    23:00 +9°C° 0 mm 3 m/s 759 mmHg 68%

    Poimâine, 23 Noiembrie, Joi

    Timp Temperatura Precipitaţii Vânt Presiune Umiditate
    00:00 +8°C° 0 mm 3 m/s 759 mmHg 69%
    01:00 +8°C° 0 mm 2 m/s 759 mmHg 70%
    02:00 +8°C° 0 mm 2 m/s 759 mmHg 71%
    03:00 +8°C° 0 mm 2 m/s 759 mmHg 72%
    04:00 +7°C° 0 mm 2 m/s 759 mmHg 73%
    05:00 +7°C° 0 mm 2 m/s 759 mmHg 74%
    06:00 +7°C° 0 mm 2 m/s 760 mmHg 75%
    07:00 +8°C° 0 mm 1 m/s 760 mmHg 75%
    08:00 +8°C° 0 mm 1 m/s 761 mmHg 76%
    09:00 +9°C° 0 mm 1 m/s 761 mmHg 70%
    10:00 +11°C° 0 mm 1 m/s 761 mmHg 63%
    11:00 +12°C° 0 mm 1 m/s 761 mmHg 57%
    12:00 +13°C° 0 mm 1 m/s 761 mmHg 56%
    13:00 +14°C° 0 mm 2 m/s 761 mmHg 54%
    14:00 +14°C° 0 mm 2 m/s 761 mmHg 52%
    15:00 +13°C° 0 mm 1 m/s 761 mmHg 56%
    16:00 +12°C° 0 mm 1 m/s 762 mmHg 60%
    17:00 +12°C° 0 mm 1 m/s 762 mmHg 64%
    18:00 +11°C° 0 mm 1 m/s 762 mmHg 67%
    19:00 +10°C° 0 mm 1 m/s 763 mmHg 69%
    20:00 +10°C° 0 mm 1 m/s 763 mmHg 71%
    21:00 +10°C° 0 mm 1 m/s 763 mmHg 73%
    22:00 +9°C° 0 mm 1 m/s 763 mmHg 74%
    23:00 +9°C° 0 mm 1 m/s 764 mmHg 75%

    24 Noiembrie, Vineri

    Timp Temperatura Precipitaţii Vânt Presiune Umiditate
    00:00 +9°C° 0 mm 1 m/s 763 mmHg 77%
    01:00 +8°C° 0 mm 1 m/s 763 mmHg 78%
    02:00 +8°C° 0 mm 1 m/s 763 mmHg 79%
    03:00 +7°C° 0 mm 0 m/s 763 mmHg 80%
    04:00 +7°C° 0 mm 0 m/s 763 mmHg 81%
    05:00 +6°C° 0 mm 0 m/s 763 mmHg 82%
    06:00 +6°C° 0 mm 0 m/s 763 mmHg 82%
    07:00 +6°C° 0 mm 0 m/s 763 mmHg 82%
    08:00 +6°C° 0 mm 0 m/s 764 mmHg 82%
    09:00 +8°C° 0 mm 0 m/s 764 mmHg 76%
    10:00 +10°C° 0 mm 1 m/s 764 mmHg 70%
    11:00 +12°C° 0 mm 1 m/s 764 mmHg 64%
    12:00 +12°C° 0 mm 1 m/s 764 mmHg 61%
    13:00 +13°C° 0 mm 1 m/s 764 mmHg 59%
    14:00 +13°C° 0 mm 0 m/s 763 mmHg 57%
    15:00 +13°C° 0 mm 1 m/s 764 mmHg 61%
    16:00 +12°C° 0 mm 1 m/s 764 mmHg 64%
    17:00 +11°C° 0 mm 1 m/s 764 mmHg 68%
    18:00 +11°C° 0 mm 1 m/s 765 mmHg 71%
    19:00 +10°C° 0 mm 1 m/s 765 mmHg 73%
    20:00 +9°C° 0 mm 2 m/s 765 mmHg 75%
    21:00 +8°C° 0 mm 2 m/s 766 mmHg 77%
    22:00 +8°C° 0 mm 2 m/s 766 mmHg 78%
    23:00 +7°C° 0 mm 2 m/s 767 mmHg 80%

    25 Noiembrie, Sâmbătă

    Timp Temperatura Precipitaţii Vânt Presiune Umiditate
    00:00 +8°C° 0 mm 1 m/s 767 mmHg 82%
    01:00 +8°C° 0 mm 1 m/s 767 mmHg 83%
    02:00 +8°C° 0 mm 1 m/s 767 mmHg 84%
    03:00 +7°C° 0 mm 1 m/s 767 mmHg 85%
    04:00 +7°C° 0 mm 1 m/s 767 mmHg 86%
    05:00 +7°C° 0 mm 1 m/s 767 mmHg 87%
    06:00 +7°C° 0 mm 1 m/s 767 mmHg 87%
    07:00 +7°C° 0 mm 1 m/s 767 mmHg 87%
    08:00 +6°C° 0 mm 1 m/s 767 mmHg 88%
    09:00 +8°C° 0 mm 1 m/s 767 mmHg 80%
    10:00 +10°C° 0 mm 1 m/s 767 mmHg 73%
    11:00 +11°C° 0 mm 1 m/s 768 mmHg 66%
    12:00 +12°C° 0 mm 1 m/s 767 mmHg 63%
    13:00 +13°C° 0 mm 1 m/s 767 mmHg 59%
    14:00 +14°C° 0 mm 1 m/s 766 mmHg 55%
    15:00 +13°C° 0 mm 1 m/s 766 mmHg 59%
    16:00 +12°C° 0 mm 1 m/s 766 mmHg 63%
    17:00 +11°C° 0 mm 1 m/s 766 mmHg 66%
    18:00 +11°C° 0 mm 1 m/s 766 mmHg 69%
    19:00 +10°C° 0 mm 1 m/s 767 mmHg 71%
    20:00 +10°C° 0 mm 1 m/s 767 mmHg 74%
    21:00 +9°C° 0 mm 1 m/s 767 mmHg 75%
    22:00 +9°C° 0 mm 1 m/s 767 mmHg 77%
    23:00 +9°C° 0 mm 1 m/s 767 mmHg 79%

    26 Noiembrie, Duminică

    Timp Temperatura Precipitaţii Vânt Presiune Umiditate
    00:00 +8°C° 0 mm 1 m/s 767 mmHg 80%
    01:00 +8°C° 0 mm 1 m/s 766 mmHg 81%
    02:00 +8°C° 0 mm 1 m/s 766 mmHg 83%
    03:00 +8°C° 0 mm 1 m/s 766 mmHg 83%
    04:00 +7°C° 0 mm 1 m/s 766 mmHg 84%
    05:00 +7°C° 0 mm 1 m/s 766 mmHg 85%
    06:00 +7°C° 0 mm 1 m/s 766 mmHg 85%
    07:00 +7°C° 0 mm 1 m/s 766 mmHg 85%
    08:00 +7°C° 0 mm 1 m/s 766 mmHg 85%
    09:00 +8°C° 0 mm 1 m/s 766 mmHg 78%
    10:00 +10°C° 0 mm 1 m/s 766 mmHg 71%
    11:00 +11°C° 0 mm 1 m/s 766 mmHg 64%
    12:00 +12°C° 0 mm 1 m/s 765 mmHg 61%
    13:00 +13°C° 0 mm 1 m/s 765 mmHg 57%
    14:00 +14°C° 0 mm 1 m/s 764 mmHg 54%
    15:00 +13°C° 0 mm 1 m/s 764 mmHg 58%
    16:00 +12°C° 0 mm 1 m/s 764 mmHg 62%
    17:00 +11°C° 0 mm 1 m/s 764 mmHg 66%
    18:00 +11°C° 0 mm 1 m/s 764 mmHg 67%
    19:00 +10°C° 0 mm 1 m/s 764 mmHg 69%
    20:00 +10°C° 0 mm 1 m/s 764 mmHg 71%
    21:00 +10°C° 0 mm 1 m/s 764 mmHg 72%
    22:00 +9°C° 0 mm 1 m/s 764 mmHg 73%
    23:00 +9°C° 0 mm 1 m/s 763 mmHg 74%
    Arată mai mult